Navarre Beach Marine Science Sta FL US WEATHERSTEM current weather conditions

sailwx.info

Wind from 195 at 6 knots gusting 8

Air temperature 15.8° C
Dewpoint 9.2° C

Last reported at 2020-Jan-28 21:00 UTC.
Time now 2020-Jan-28 22:15 UTC

Location: N 30°23' W 086°51'.
View on Google Maps.

See reports from other nearby stations

  
Tides and Currents Weather Stations Pressure Air Temp Water Temp Dewpoint Dewpoint Depression Visibility Wind Speed Wind Dir Waves Ship Positions
date/time (UTC)wind fromknots sea level pressurealtimeterstation pressurevisibilityair tempwater tempwave heightnotes
2020-Jan-28 21:00 195 6 gusting 8 15.8
2020-Jan-28 20:50 196 7 gusting 9 15.7
2020-Jan-28 20:40 202 6 gusting 8 15.6
2020-Jan-28 20:20 169 3 gusting 6 15.6
2020-Jan-28 20:10 175 5 gusting 10 15.6
2020-Jan-28 20:00 159 10 gusting 11 15.5
2020-Jan-28 19:50 163 6 gusting 10 15.6
2020-Jan-28 19:40 153 7 gusting 10 15.4
2020-Jan-28 19:20 151 8 gusting 13 15.4
2020-Jan-28 19:10 135 9 gusting 11 15.4
2020-Jan-28 19:00 131 10 gusting 11 15.3
2020-Jan-28 18:50 135 11 gusting 12 15.2
2020-Jan-28 18:40 136 10 gusting 11 15.3
2020-Jan-28 18:20 133 9 gusting 12 15.2
2020-Jan-28 18:10 126 7 gusting 12 14.9
2020-Jan-28 17:50 108 10 gusting 13 14.8
2020-Jan-28 17:40 127 7 gusting 13 14.9
2020-Jan-28 17:30 128 8 gusting 12 14.6
2020-Jan-28 17:20 126 8 gusting 11 14.6
2020-Jan-28 17:10 126 8 gusting 9 14.6
2020-Jan-28 17:00 107 8 gusting 11 14.4
2020-Jan-28 16:50 101 7 gusting 10 14.3
2020-Jan-28 16:40 116 6 gusting 11 14.3
2020-Jan-28 16:20 095 8 gusting 11 13.7
2020-Jan-28 16:10 105 8 gusting 12 13.5
2020-Jan-28 16:00 079 7 gusting 11 13.1
2020-Jan-28 15:50 076 8 gusting 11 12.8
2020-Jan-28 15:40 080 8 gusting 9 12.5
2020-Jan-28 15:20 069 4 gusting 9 11.4
2020-Jan-28 15:10 068 7 gusting 8 11.1
2020-Jan-28 15:00 069 7 gusting 8 10.9
2020-Jan-28 14:50 064 5 gusting 8 10.6
2020-Jan-28 14:40 055 4 gusting 8 10.2
2020-Jan-28 14:30 040 4 gusting 9 9.8
2020-Jan-28 14:20 049 8 gusting 9 9.6
2020-Jan-28 14:10 063 6 gusting 9 9.4
2020-Jan-28 14:00 044 3 gusting 10 9.1
2020-Jan-28 13:50 053 4 gusting 7 8.8
2020-Jan-28 13:40 057 4 gusting 6 8.4
2020-Jan-28 13:30 036 4 gusting 7 7.9
2020-Jan-28 13:20 036 5 gusting 8 7.8
2020-Jan-28 13:10 032 5 gusting 7 7.7
2020-Jan-28 13:00 029 3 gusting 7 7.7
2020-Jan-28 12:50 020 3 gusting 6 7.7
2020-Jan-28 12:40 019 4 gusting 6 7.7
2020-Jan-28 12:30 019 2 gusting 4 7.9
2020-Jan-28 12:20 019 1 gusting 6 7.9
2020-Jan-28 12:10 019 4 gusting 6 8.0
2020-Jan-28 12:00 019 6 gusting 6 8.0
2020-Jan-28 11:50 019 2 gusting 4 8.1
2020-Jan-28 11:40 019 3 gusting 5 8.1
2020-Jan-28 11:30 017 3 gusting 5 8.1
2020-Jan-28 11:20 016 1 gusting 5 8.1
2020-Jan-28 11:10 016 4 gusting 6 8.0
2020-Jan-28 11:00 017 4 gusting 6 8.1
2020-Jan-28 10:50 017 6 gusting 7 8.0
2020-Jan-28 10:40 014 6 gusting 7 8.0
2020-Jan-28 10:30 017 7 gusting 8 8.0
2020-Jan-28 10:20 015 6 gusting 8 8.1
2020-Jan-28 10:10 015 2 gusting 9 8.1
2020-Jan-28 10:00 014 6 gusting 8 8.1
2020-Jan-28 09:50 015 6 gusting 8 8.2
2020-Jan-28 09:40 013 6 gusting 7 8.3
2020-Jan-28 09:30 015 4 gusting 8 8.4
2020-Jan-28 09:20 015 4 gusting 8 8.3
2020-Jan-28 09:10 013 4 gusting 8 8.3
2020-Jan-28 09:00 016 1 gusting 7 8.5
2020-Jan-28 08:50 015 0 gusting 7 8.4
2020-Jan-28 08:40 014 3 gusting 6 8.6
2020-Jan-28 08:30 013 3 gusting 6 8.6
2020-Jan-28 08:20 013 3 gusting 6 8.7
2020-Jan-28 08:10 013 2 gusting 4 8.7
2020-Jan-28 08:00 013 3 gusting 6 8.6
2020-Jan-28 07:50 013 4 gusting 6 8.7
2020-Jan-28 07:40 013 2 gusting 5 8.6
2020-Jan-28 07:30 013 3 gusting 5 8.7
2020-Jan-28 07:20 013 3 gusting 5 8.7
2020-Jan-28 07:10 013 0 gusting 6 8.7
2020-Jan-28 07:00 013 3 gusting 6 8.7
2020-Jan-28 06:50 013 1 gusting 7 8.8
2020-Jan-28 06:40 013 3 gusting 6 8.9
2020-Jan-28 06:30 013 1 gusting 6 8.9
2020-Jan-28 06:20 013 3 gusting 6 9.0
2020-Jan-28 06:10 013 1 gusting 4 9.1
2020-Jan-28 06:00 013 2 gusting 4 9.1
2020-Jan-28 05:50 013 3 gusting 5 9.2
2020-Jan-28 05:40 013 4 gusting 5 9.3
2020-Jan-28 05:30 013 2 gusting 5 9.5
2020-Jan-28 05:20 013 3 gusting 4 9.6
2020-Jan-28 05:10 013 2 gusting 4 9.7
2020-Jan-28 04:50 013 3 gusting 5 9.9
2020-Jan-28 04:40 013 2 gusting 5 10.0
2020-Jan-28 04:30 013 4 gusting 4 10.1
2020-Jan-28 04:20 013 2 gusting 4 10.1
2020-Jan-28 04:10 013 2 gusting 5 10.2
2020-Jan-28 04:00 013 2 gusting 5 10.3
2020-Jan-28 03:40 013 1 gusting 4 10.3
2020-Jan-28 03:30 013 1 gusting 3 10.4
2020-Jan-28 03:20 013 0 gusting 4 10.4
2020-Jan-28 03:10 013 2 gusting 4 10.5
2020-Jan-28 03:00 013 1 gusting 3 10.7
2020-Jan-28 02:50 013 0 gusting 4 10.8
2020-Jan-28 02:40 013 1 gusting 3 10.8
2020-Jan-28 02:30 013 2 gusting 5 11.0
2020-Jan-28 02:20 013 1 gusting 5 11.2
2020-Jan-28 02:10 013 3 gusting 6 11.2
2020-Jan-28 02:00 013 4 gusting 6 11.3
2020-Jan-28 01:50 013 3 gusting 5 11.5
2020-Jan-28 01:40 013 3 gusting 6 11.6
2020-Jan-28 01:30 013 3 gusting 6 11.6
2020-Jan-28 01:20 013 2 gusting 4 11.6
2020-Jan-28 01:10 013 4 gusting 5 11.7
2020-Jan-28 01:00 013 1 gusting 5 11.8
2020-Jan-28 00:50 013 2 gusting 4 12.0
2020-Jan-28 00:40 013 2 gusting 3 12.2
2020-Jan-28 00:30 013 0 gusting 5 12.4
2020-Jan-28 00:20 015 3 gusting 6 12.6
2020-Jan-28 00:10 015 3 gusting 7 12.8
2020-Jan-28 00:00 015 6 gusting 9 12.9
2020-Jan-27 23:50 026 2 gusting 7 12.9
2020-Jan-27 23:40 015 6 gusting 9 13.0
2020-Jan-27 23:30 015 4 gusting 9 13.1
2020-Jan-27 23:20 355 4 gusting 10 13.1
2020-Jan-27 23:10 017 7 gusting 12 13.1
2020-Jan-27 23:00 023 5 gusting 10 13.2
2020-Jan-27 22:50 333 5 gusting 12 13.3
2020-Jan-27 22:40 005 10 gusting 14 13.4
2020-Jan-27 22:30 355 3 gusting 10 13.4
2020-Jan-27 22:20 032 5 gusting 12 13.4
2020-Jan-27 22:10 355 5 gusting 12 13.4
2020-Jan-27 22:00 013 4 gusting 14 13.3
2020-Jan-27 21:50 062 7 gusting 13 13.3
2020-Jan-27 21:40 082 6 gusting 13 13.4
2020-Jan-27 21:30 022 12 gusting 13 13.7
2020-Jan-27 21:20 355 9 gusting 13 13.9
2020-Jan-27 21:10 022 9 gusting 13 14.1
2020-Jan-27 21:00 017 10 gusting 13 14.4
2020-Jan-27 20:50 020 10 gusting 13 14.8
2020-Jan-27 20:40 038 9 gusting 13 15.0
2020-Jan-27 20:30 005 7 gusting 11 15.6
2020-Jan-27 20:20 027 5 gusting 12 15.6
2020-Jan-27 20:10 017 3 gusting 11 15.7
2020-Jan-27 20:00 051 2 gusting 10 15.7
2020-Jan-27 19:50 043 8 gusting 14 16.1
2020-Jan-27 19:40 026 4 gusting 12 16.2
2020-Jan-27 19:30 344 12 gusting 13 16.3
2020-Jan-27 19:20 022 8 gusting 12 16.9
2020-Jan-27 19:10 009 6 gusting 11 16.7
2020-Jan-27 19:00 013 0 gusting 9 16.9
2020-Jan-27 18:50 005 4 gusting 9 16.9
2020-Jan-27 18:40 360 2 gusting 9 16.9
2020-Jan-27 18:30 355 0 gusting 8 16.6
2020-Jan-27 18:20 360 1 gusting 8 16.4
2020-Jan-27 18:10 360 3 gusting 8 15.9
2020-Jan-27 18:00 043 5 gusting 8 15.1
2020-Jan-27 17:50 057 3 gusting 10 14.9
2020-Jan-27 17:40 080 6 gusting 7 14.6
2020-Jan-27 17:30 068 4 gusting 8 14.1
2020-Jan-27 17:20 046 4 gusting 6 13.8
2020-Jan-27 17:10 044 6 gusting 7 13.2
2020-Jan-27 17:00 045 3 gusting 6 12.6
2020-Jan-27 16:50 036 2 gusting 5 12.3
2020-Jan-27 16:30 016 1 gusting 5 11.8
2020-Jan-27 16:20 032 3 gusting 6 11.4
2020-Jan-27 16:10 051 5 gusting 7 11.3
2020-Jan-27 16:00 040 1 gusting 7 11.1
2020-Jan-27 15:50 022 2 gusting 7 10.8
2020-Jan-27 15:40 054 5 gusting 8 10.6
2020-Jan-27 15:30 051 6 gusting 10 10.4
2020-Jan-27 15:20 036 8 gusting 9 10.2
2020-Jan-27 15:10 024 6 gusting 11 10.0
2020-Jan-27 15:00 019 4 gusting 10 9.8
2020-Jan-27 14:50 019 8 gusting 11 9.7
2020-Jan-27 14:40 063 6 gusting 11 9.5
2020-Jan-27 14:30 013 4 gusting 9 9.5
2020-Jan-27 14:20 012 7 gusting 9 9.6
2020-Jan-27 14:10 048 7 gusting 8 9.5
2020-Jan-27 14:00 011 6 gusting 9 9.5
2020-Jan-27 13:40 047 6 gusting 8 9.7
2020-Jan-27 13:20 035 0 gusting 9 9.8
2020-Jan-27 13:10 047 4 gusting 8 9.8
2020-Jan-27 13:00 051 7 gusting 8 9.8
2020-Jan-27 12:50 025 2 gusting 8 9.8
2020-Jan-27 12:40 018 6 gusting 8 9.9
2020-Jan-27 12:30 046 2 gusting 8 9.8
2020-Jan-27 12:20 067 4 gusting 8 9.9
2020-Jan-27 12:10 053 3 gusting 9 10.1
2020-Jan-27 12:00 055 5 gusting 9 9.9
2020-Jan-27 11:50 031 7 gusting 10 10.0
2020-Jan-27 11:40 057 8 gusting 10 10.0
2020-Jan-27 11:30 061 7 gusting 9 9.9
2020-Jan-27 11:20 059 6 gusting 9 9.9
2020-Jan-27 11:10 066 6 gusting 9 9.9
2020-Jan-27 11:00 063 7 gusting 10 9.9
2020-Jan-27 10:50 067 8 gusting 11 9.9
2020-Jan-27 10:40 064 9 gusting 10 9.8
2020-Jan-27 10:30 074 8 gusting 11 9.7
2020-Jan-27 10:20 073 8 gusting 9 9.5
2020-Jan-27 10:10 044 5 gusting 11 9.4
2020-Jan-27 10:00 045 8 gusting 10 9.4
2020-Jan-27 09:50 045 7 gusting 10 9.3
2020-Jan-27 09:40 076 6 gusting 9 9.3
2020-Jan-27 09:30 076 6 gusting 9 9.3
2020-Jan-27 09:20 080 6 gusting 11 9.4
2020-Jan-27 09:00 063 7 gusting 10 9.6
2020-Jan-27 08:50 061 6 gusting 9 9.7
2020-Jan-27 08:40 053 7 gusting 12 9.8
2020-Jan-27 08:30 036 5 gusting 12 9.9
2020-Jan-27 08:20 047 9 gusting 10 10.3
2020-Jan-27 08:10 063 7 gusting 10 10.5
2020-Jan-27 08:00 063 9 gusting 9 10.6
2020-Jan-27 07:50 082 6 gusting 11 10.7
2020-Jan-27 07:40 084 8 gusting 11 10.4
2020-Jan-27 07:30 069 5 gusting 11 10.7
2020-Jan-27 07:20 082 9 gusting 12 10.3
2020-Jan-27 07:10 082 6 gusting 10 10.2
2020-Jan-27 07:00 073 6 gusting 10 10.4
2020-Jan-27 06:50 085 6 gusting 10 10.3
2020-Jan-27 06:40 065 7 gusting 9 10.3
2020-Jan-27 06:30 085 6 gusting 10 10.3
2020-Jan-27 06:20 066 8 gusting 10 10.3
2020-Jan-27 06:10 080 6 gusting 9 10.4
2020-Jan-27 06:00 070 7 gusting 10 10.2
2020-Jan-27 05:50 078 9 gusting 9 10.2
2020-Jan-27 05:40 076 7 gusting 10 10.1
2020-Jan-27 05:30 069 7 gusting 11 10.1
2020-Jan-27 05:20 067 7 gusting 11 10.1
2020-Jan-27 05:10 071 8 gusting 12 10.1
2020-Jan-27 04:50 061 6 gusting 12 10.3
2020-Jan-27 04:30 074 9 gusting 11 10.2
2020-Jan-27 04:20 082 7 gusting 10 10.3
2020-Jan-27 04:10 088 8 gusting 9 10.3
2020-Jan-27 04:00 074 6 gusting 11 10.4
2020-Jan-27 03:50 078 8 gusting 13 10.2
2020-Jan-27 03:40 093 7 gusting 12 10.1
2020-Jan-27 03:30 086 8 gusting 11 10.1
2020-Jan-27 03:20 084 8 gusting 11 10.1
2020-Jan-27 03:10 069 10 gusting 12 10.1
2020-Jan-27 03:00 078 7 gusting 11 10.2
2020-Jan-27 02:50 077 6 gusting 11 10.4
2020-Jan-27 02:40 080 9 gusting 12 10.7
2020-Jan-27 02:30 080 7 gusting 12 10.7
2020-Jan-27 02:20 078 10 gusting 12 10.7
2020-Jan-27 02:10 082 8 gusting 13 10.6
2020-Jan-27 02:00 360 11 gusting 12 10.6
2020-Jan-27 01:50 063 9 gusting 13 10.5
2020-Jan-27 01:40 078 11 gusting 12 10.4
2020-Jan-27 01:30 077 10 gusting 13 10.6
2020-Jan-27 01:20 086 8 gusting 11 10.5
2020-Jan-27 01:10 072 8 gusting 10 10.2
2020-Jan-27 01:00 085 6 gusting 12 10.1
2020-Jan-27 00:50 081 7 gusting 10 10.3
2020-Jan-27 00:40 063 7 gusting 11 10.4
2020-Jan-27 00:30 063 7 gusting 13 11.5
2020-Jan-27 00:20 088 10 gusting 11 11.7
2020-Jan-27 00:10 107 8 gusting 21 11.8
2020-Jan-27 00:00 121 14 gusting 22 11.6
2020-Jan-26 23:50 116 15 gusting 17 11.2
2020-Jan-26 23:40 117 11 gusting 15 10.4
2020-Jan-26 23:30 090 8 gusting 11 9.8
2020-Jan-26 23:20 078 7 gusting 12 9.8
2020-Jan-26 23:10 090 9 gusting 13 9.9
2020-Jan-26 22:50 067 10 gusting 10 9.7
2020-Jan-26 22:40 059 6 gusting 8 9.8
2020-Jan-26 22:30 047 5 gusting 11 9.9
2020-Jan-26 22:20 069 3 gusting 11 9.7
2020-Jan-26 22:10 094 9 gusting 12 9.7
2020-Jan-26 22:00 081 8 gusting 9 9.7